Horseshoe Bay, TX

4:32 AM MDT on August 19, 2017 (GMT -0600)
Horseshoe Bay

Weather History for KDZB - March, 2013

Change the Weather History Date:

Monday, March 11, 2013

  Actual Average (KBMQ) Record (KBMQ)
Temperature  
Mean Temperature 49 °F -  
Max Temperature 66 °F 64 °F 84 °F (2006)
Min Temperature 32 °F 45 °F 32 °F (1998)
Degree Days  
Heating Degree Days 16    
Moisture  
Dew Point 26 °F    
Average Humidity 47    
Maximum Humidity 93    
Minimum Humidity 19    
Precipitation  
Precipitation 0.00 in - - ()
Sea Level Pressure  
Sea Level Pressure 30.09 in    
Wind  
Wind Speed 5 mph (WNW)    
Max Wind Speed 13 mph    
Max Gust Speed 18 mph    
Visibility 10 miles    
Events      
Averages and records for this station are not official NWS values.
T = Trace of Precipitation, MM = Missing Value Source: NWS Daily Summary

Daily Weather History Graph

Daily Weather History Graph

Search for Another Location

Airport or City:

Trip Planner

Search our weather history database for the weather conditions in past years. The results will help you decide how hot, cold, wet, or windy it might be!

Date:

Astronomy

Mar. 11, 2013 Rise Set
Actual Time 6:47 AM MDT 6:39 PM MDT
Civil Twilight 6:23 AM MDT 7:03 PM MDT
Nautical Twilight 5:55 AM MDT 7:31 PM MDT
Astronomical Twilight 5:28 AM MDT 7:59 PM MDT
Moon 6:24 AM MDT (3/11) 6:48 PM MDT (3/11)
Length of Visible Light 12h 39m
Length of Day
11h 51m
Waning Crescent, 0% of the Moon is Illuminated
Mar 11
Waning Crescent
Mar 11
New
Mar 19
First Quarter
Mar 27
Full
Apr 2
Last Quarter

Hourly Weather History & Observations

Time (MDT) Temp. Windchill Dew Point Humidity Pressure Visibility Wind Dir Wind Speed Gust Speed Precip Events Conditions
12:35 AM 39.2 °F - 32.0 °F 75% 30.13 in 10.0 mi Calm Calm - N/A   Clear
12:55 AM 37.4 °F 34.9 °F 32.0 °F 81% 30.12 in 10.0 mi SSW 3.5 mph - N/A   Clear
1:15 AM 35.6 °F 30.7 °F 32.0 °F 87% 30.12 in 10.0 mi SW 5.8 mph - N/A   Clear
1:55 AM 35.6 °F 30.7 °F 32.0 °F 87% 30.12 in 10.0 mi WSW 5.8 mph - N/A   Clear
2:15 AM 35.6 °F 30.7 °F 32.0 °F 87% 30.11 in 10.0 mi SW 5.8 mph - N/A   Clear
2:35 AM 35.6 °F 29.9 °F 32.0 °F 87% 30.11 in 10.0 mi SW 6.9 mph - N/A   Clear
2:55 AM 33.8 °F 30.8 °F 32.0 °F 93% 30.11 in 10.0 mi West 3.5 mph - N/A   Clear
3:15 AM 33.8 °F - 32.0 °F 93% 30.11 in 10.0 mi Calm Calm - N/A   Clear
3:35 AM 33.8 °F - 32.0 °F 93% 30.10 in 10.0 mi Calm Calm - N/A   Clear
4:15 AM 37.4 °F 34.9 °F 30.2 °F 75% 30.11 in 10.0 mi West 3.5 mph - N/A   Clear
4:35 AM 37.4 °F 34.9 °F 30.2 °F 75% 30.11 in 10.0 mi WNW 3.5 mph - N/A   Clear
4:55 AM 35.6 °F 32.8 °F 28.4 °F 75% 30.12 in 10.0 mi WNW 3.5 mph - N/A   Clear
5:15 AM 35.6 °F 32.8 °F 28.4 °F 75% 30.12 in 10.0 mi WNW 3.5 mph - N/A   Clear
5:35 AM 35.6 °F 32.8 °F 28.4 °F 75% 30.13 in 10.0 mi WNW 3.5 mph - N/A   Clear
5:55 AM 33.8 °F 30.8 °F 26.6 °F 75% 30.13 in 10.0 mi West 3.5 mph - N/A   Clear
6:15 AM 33.8 °F 30.8 °F 26.6 °F 75% 30.13 in 10.0 mi West 3.5 mph - N/A   Clear
6:35 AM 33.8 °F 30.8 °F 26.6 °F 75% 30.13 in 10.0 mi WSW 3.5 mph - N/A   Clear
6:55 AM 32.0 °F 28.7 °F 26.6 °F 80% 30.14 in 10.0 mi WSW 3.5 mph - N/A   Clear
7:15 AM 35.6 °F 32.8 °F 23.0 °F 60% 30.15 in 10.0 mi West 3.5 mph - N/A   Clear
7:35 AM 37.4 °F 34.9 °F 23.0 °F 56% 30.16 in 10.0 mi WSW 3.5 mph - N/A   Clear
7:55 AM 39.2 °F 35.9 °F 24.8 °F 56% 30.17 in 10.0 mi West 4.6 mph - N/A   Clear
8:15 AM 41.0 °F 39.0 °F 23.0 °F 49% 30.17 in 10.0 mi WNW 3.5 mph - N/A   Clear
8:35 AM 41.0 °F 37.1 °F 24.8 °F 53% 30.18 in 10.0 mi NW 5.8 mph - N/A   Clear
8:55 AM 42.8 °F 38.0 °F 23.0 °F 46% 30.18 in 10.0 mi NW 8.1 mph - N/A   Clear
9:15 AM 44.6 °F 40.7 °F 23.0 °F 43% 30.18 in 10.0 mi NNW 6.9 mph - N/A   Clear
9:35 AM 44.6 °F 40.2 °F 23.0 °F 43% 30.18 in 10.0 mi North 8.1 mph - N/A   Clear
9:55 AM 46.4 °F 43.5 °F 23.0 °F 40% 30.18 in 10.0 mi NNW 5.8 mph - N/A   Clear
10:15 AM 46.4 °F 42.9 °F 23.0 °F 40% 30.18 in 10.0 mi NW 6.9 mph - N/A   Clear
10:35 AM 50.0 °F - 21.2 °F 32% 30.17 in 10.0 mi NNW 10.4 mph 16.1 mph N/A   Clear
10:55 AM 51.8 °F - 21.2 °F 30% 30.16 in 10.0 mi NNW 12.7 mph 18.4 mph N/A   Clear
11:15 AM 51.8 °F - 19.4 °F 28% 30.16 in 10.0 mi NNW 8.1 mph - N/A   Clear
11:35 AM 53.6 °F - 19.4 °F 26% 30.15 in 10.0 mi North 6.9 mph - N/A   Clear
11:55 AM 53.6 °F - 17.6 °F 24% 30.14 in 10.0 mi NW 6.9 mph - N/A   Clear
12:15 PM 55.4 °F - 19.4 °F 25% 30.14 in 10.0 mi NW 8.1 mph - N/A   Clear
12:35 PM 57.2 °F - 21.2 °F 25% 30.13 in 10.0 mi NW 9.2 mph - N/A   Clear
12:55 PM 59.0 °F - 21.2 °F 23% 30.11 in 10.0 mi NNW 8.1 mph - N/A   Clear
1:15 PM 60.8 °F - 23.0 °F 23% 30.10 in 10.0 mi NNW 4.6 mph - N/A   Clear
1:35 PM 60.8 °F - 21.2 °F 22% 30.08 in 10.0 mi NNW 9.2 mph 17.3 mph N/A   Clear
1:55 PM 60.8 °F - 21.2 °F 22% 30.07 in 10.0 mi NNW 10.4 mph - N/A   Clear
2:15 PM 62.6 °F - 23.0 °F 22% 30.06 in 10.0 mi NNW 10.4 mph - N/A   Clear
2:35 PM 62.6 °F - 21.2 °F 20% 30.05 in 10.0 mi North 10.4 mph - N/A   Clear
2:55 PM 64.4 °F - 21.2 °F 19% 30.04 in 10.0 mi NNW 8.1 mph - N/A   Clear
3:15 PM 64.4 °F - 23.0 °F 21% 30.03 in 10.0 mi North 4.6 mph - N/A   Clear
3:35 PM 66.2 °F - 24.8 °F 21% 30.02 in 10.0 mi WNW 4.6 mph - N/A   Clear
3:55 PM 64.4 °F - 23.0 °F 21% 30.01 in 10.0 mi NNW 5.8 mph 16.1 mph N/A   Clear
4:15 PM 66.2 °F - 23.0 °F 19% 30.01 in 10.0 mi North 8.1 mph - N/A   Clear
4:35 PM 66.2 °F - 23.0 °F 19% 30.00 in 10.0 mi NNW 9.2 mph - N/A   Clear
4:55 PM 66.2 °F - 23.0 °F 19% 30.00 in 10.0 mi NNW 5.8 mph - N/A   Clear
5:15 PM 66.2 °F - 23.0 °F 19% 30.00 in 10.0 mi NNW 6.9 mph - N/A   Clear
5:35 PM 66.2 °F - 23.0 °F 19% 30.00 in 10.0 mi North 3.5 mph - N/A   Clear
5:55 PM 64.4 °F - 23.0 °F 21% 30.00 in 10.0 mi Calm Calm - N/A   Clear
6:15 PM 64.4 °F - 24.8 °F 22% 30.00 in 10.0 mi Calm Calm - N/A   Clear
6:35 PM 62.6 °F - 26.6 °F 26% 30.00 in 10.0 mi Calm Calm - N/A   Clear
6:55 PM 55.4 °F - 32.0 °F 41% 30.01 in 10.0 mi Calm Calm - N/A   Clear
7:15 PM 51.8 °F - 33.8 °F 50% 30.01 in 10.0 mi Calm Calm - N/A   Clear
7:35 PM 50.0 °F - 33.8 °F 54% 30.02 in 10.0 mi SE 3.5 mph - N/A   Clear
7:55 PM 50.0 °F - 32.0 °F 50% 30.02 in 10.0 mi East 3.5 mph - N/A   Clear
8:15 PM 51.8 °F - 32.0 °F 47% 30.03 in 10.0 mi SSE 3.5 mph - N/A   Clear
8:35 PM 51.8 °F - 30.2 °F 44% 30.03 in 10.0 mi SE 3.5 mph - N/A   Clear
8:55 PM 50.0 °F - 30.2 °F 47% 30.04 in 10.0 mi SSE 4.6 mph - N/A   Clear
9:15 PM 50.0 °F - 30.2 °F 47% 30.04 in 10.0 mi SSE 5.8 mph - N/A   Clear
9:35 PM 50.0 °F - 28.4 °F 43% 30.05 in 10.0 mi SSE 5.8 mph - N/A   Clear
9:55 PM 51.8 °F - 28.4 °F 41% 30.06 in 10.0 mi South 4.6 mph - N/A   Clear
10:15 PM 51.8 °F - 28.4 °F 41% 30.06 in 10.0 mi South 5.8 mph - N/A   Clear
10:55 PM 51.8 °F - 26.6 °F 38% 30.06 in 10.0 mi South 5.8 mph - N/A   Clear
11:15 PM 51.8 °F - 26.6 °F 38% 30.06 in 10.0 mi South 6.9 mph - N/A   Clear
11:35 PM 51.8 °F - 28.4 °F 41% 30.06 in 10.0 mi South 5.8 mph - N/A   Clear
11:55 PM 50.0 °F - 28.4 °F 43% 30.06 in 10.0 mi South 5.8 mph - N/A   Clear